TimeEDT,TemperatureF,Dew PointF,Humidity,Sea Level PressureIn,VisibilityMPH,Wind Direction,Wind SpeedMPH,Gust SpeedMPH,PrecipitationIn,Events,Conditions,WindDirDegrees,DateUTC
12:53 AM,42.1,37.9,85,30.27,10.0,Calm,Calm,-,N/A,,Scattered Clouds,0,2013-10-15 04:53:00
1:53 AM,42.1,39.0,89,30.26,10.0,Calm,Calm,-,N/A,,Mostly Cloudy,0,2013-10-15 05:53:00
2:53 AM,43.0,39.9,89,30.24,10.0,Calm,Calm,-,N/A,,Mostly Cloudy,0,2013-10-15 06:53:00
3:53 AM,42.1,39.0,89,30.22,10.0,Calm,Calm,-,N/A,,Clear,0,2013-10-15 07:53:00
4:53 AM,43.0,39.9,89,30.20,10.0,Calm,Calm,-,0.01,,Clear,0,2013-10-15 08:53:00
5:53 AM,43.0,39.9,89,30.20,10.0,Calm,Calm,-,N/A,,Clear,0,2013-10-15 09:53:00
6:53 AM,43.0,39.9,89,30.20,10.0,Calm,Calm,-,N/A,,Overcast,0,2013-10-15 10:53:00
7:53 AM,45.0,42.1,90,30.20,10.0,Calm,Calm,-,N/A,,Mostly Cloudy,0,2013-10-15 11:53:00
8:53 AM,52.0,48.9,89,30.19,9.0,Calm,Calm,-,N/A,,Scattered Clouds,0,2013-10-15 12:53:00
9:53 AM,57.9,53.1,84,30.17,10.0,SSE,4.6,-,N/A,,Partly Cloudy,150,2013-10-15 13:53:00
10:24 AM,59.0,53.6,82,30.17,10.0,SSW,3.5,-,N/A,,Mostly Cloudy,200,2013-10-15 14:24:00
10:53 AM,59.0,53.1,81,30.17,10.0,South,4.6,-,N/A,,Overcast,180,2013-10-15 14:53:00
11:53 AM,61.0,54.0,78,30.15,10.0,South,5.8,-,N/A,,Overcast,170,2013-10-15 15:53:00
12:53 PM,64.0,55.0,73,30.12,10.0,South,9.2,-,N/A,,Overcast,180,2013-10-15 16:53:00
1:35 PM,66.2,55.4,68,30.08,10.0,Variable,5.8,-,N/A,,Scattered Clouds,0,2013-10-15 17:35:00
1:53 PM,66.9,55.9,68,30.08,10.0,South,9.2,-,N/A,,Partly Cloudy,170,2013-10-15 17:53:00
2:53 PM,68.0,55.9,65,30.06,10.0,South,9.2,-,N/A,,Clear,180,2013-10-15 18:53:00
3:53 PM,68.0,55.9,65,30.05,10.0,South,6.9,-,N/A,,Mostly Cloudy,190,2013-10-15 19:53:00
4:53 PM,66.0,57.0,73,30.03,10.0,SSW,6.9,-,N/A,,Mostly Cloudy,200,2013-10-15 20:53:00
5:53 PM,64.9,57.0,75,30.02,10.0,SSW,5.8,-,N/A,,Partly Cloudy,200,2013-10-15 21:53:00
6:53 PM,63.0,57.0,81,30.00,10.0,SSE,4.6,-,N/A,,Partly Cloudy,160,2013-10-15 22:53:00
7:53 PM,64.0,57.0,78,29.99,10.0,South,8.1,-,N/A,,Clear,170,2013-10-15 23:53:00
8:53 PM,63.0,57.0,81,29.97,10.0,South,8.1,-,N/A,,Clear,180,2013-10-16 00:53:00
9:53 PM,63.0,57.0,81,29.96,10.0,South,9.2,-,N/A,,Clear,170,2013-10-16 01:53:00
10:53 PM,64.0,57.0,78,29.95,10.0,South,11.5,-,N/A,,Clear,180,2013-10-16 02:53:00
11:53 PM,64.0,57.0,78,29.94,10.0,SSW,9.2,-,N/A,,Clear,200,2013-10-16 03:53:00